www.pogodaiklimat.ru
ПОГОДА в Куве

Архив погоды в Куве (Ферганская область, Узбекистан)

Время
и дата
02:50 17.04
03:00 17.04
03:10 17.04
03:20 17.04
03:30 17.04
03:40 17.04
03:50 17.04
04:00 17.04
04:10 17.04
04:20 17.04
04:30 17.04
04:40 17.04
04:50 17.04
05:00 17.04
05:10 17.04
05:20 17.04
05:30 17.04
05:40 17.04
05:50 17.04
06:00 17.04
06:10 17.04
06:20 17.04
06:30 17.04
06:40 17.04
06:50 17.04
07:00 17.04
07:10 17.04
07:20 17.04
08:30 17.04
08:50 17.04
10:40 17.04
16:20 17.04
16:50 17.04
17:00 17.04
17:10 17.04
17:20 17.04
17:30 17.04
17:40 17.04
17:50 17.04
18:00 17.04
18:10 17.04
18:20 17.04
18:30 17.04
18:40 17.04
18:50 17.04
19:00 17.04
19:10 17.04
19:20 17.04
19:30 17.04
19:40 17.04
19:50 17.04
20:10 17.04
20:20 17.04
20:30 17.04
20:40 17.04
20:50 17.04
21:00 17.04
21:10 17.04
21:30 17.04
21:40 17.04
21:50 17.04
22:00 17.04
22:10 17.04
22:20 17.04
22:30 17.04
22:40 17.04
22:50 17.04
23:00 17.04
23:10 17.04
23:20 17.04
23:30 17.04
23:40 17.04
23:50 17.04
00:20 18.04
00:30 18.04
01:00 18.04
01:10 18.04
01:20 18.04
01:30 18.04
01:50 18.04
02:00 18.04
02:10 18.04
02:30 18.04
02:40 18.04
02:50 18.04
03:00 18.04
03:10 18.04
03:20 18.04
03:30 18.04
03:40 18.04
03:50 18.04
04:00 18.04
04:10 18.04
04:20 18.04
04:30 18.04
04:40 18.04
04:50 18.04
05:00 18.04
05:40 18.04
06:00 18.04
06:20 18.04
06:40 18.04
06:50 18.04
07:00 18.04
07:10 18.04
07:20 18.04
07:40 18.04
08:00 18.04
08:10 18.04
08:20 18.04
11:00 18.04
11:30 18.04
12:20 20.04
12:30 20.04
12:50 20.04
13:00 20.04
13:10 20.04
13:30 20.04
13:40 20.04
14:00 20.04
14:10 20.04
14:20 20.04
14:40 20.04
14:50 20.04
15:00 20.04
15:20 20.04
15:30 20.04
15:40 20.04
15:50 20.04
16:00 20.04
16:10 20.04
16:20 20.04
16:30 20.04
16:40 20.04
16:50 20.04
17:00 20.04
17:10 20.04
17:20 20.04
17:30 20.04
17:40 20.04
17:50 20.04
18:00 20.04
18:10 20.04
18:20 20.04
Ветер
(напр.,м/с)
Видимость Явления Солнечная радиация
(Вт/м2)
Т
(С)
Тd
(С)
f
(%)
Тe
(С)
Тes
(С)
Комфортность P
(гПа)
Po
(гПа)
Тmin
(С)
Tmax
(С)
R
(мм)
ЮВ 0.5
{1.0}
+9.7 +9.7 100 +10 +10 1023.3 967.7 +10.4 +9.7
СВ 0.4
{0.8}
+8.9 +8.9 100 +9 +9 1023.2 967.6 +9.7 +8.9
СВ 0.5
{0.7}
+8.8 +8.8 100 +9 +9 1023.2 967.6 +8.9 +8.8
СВ 0.6
{0.9}
+8.7 +8.7 100 +9 +9 1023.0 967.4 +8.8 +8.6
В 0.5
{0.9}
+8.9 +8.9 100 +9 +9 1023.0 967.4 +8.9 +8.7
В 0.5
{1.0}
+8.9 +8.9 100 +9 +9 1022.9 967.3 +8.9 +8.8
В 1.0
{1.4}
+9.2 +9.2 100 +8 +8 1022.8 967.2 +9.2 +8.9
В 0.5
{0.9}
+9.1 +9.1 100 +9 +9 1022.8 967.2 +9.3 +9.1
СВ 0.5
{0.9}
+8.9 +8.9 100 +9 +9 1022.8 967.2 +9.1 +8.9
С 0.6
{0.9}
+8.1 +8.1 100 +8 +8 1022.8 967.2 +8.9 +8.1
СВ 0.6
{0.8}
+8.1 +8.1 100 +8 +8 1022.8 967.2 +8.1 +8.0
СВ 0.3
{0.5}
+8.3 +8.3 100 +9 +9 1022.8 967.2 +8.3 +8.0
СВ 0.3
{0.6}
+8.3 +8.3 100 +9 +9 1022.8 967.2 +8.4 +8.3
В 0.2
{0.4}
+8.5 +8.5 100 +10 +10 1022.8 967.2 +8.5 +8.2
ЮВ 0.3
{0.6}
+8.6 +8.6 100 +9 +9 1022.9 967.3 +8.6 +8.5
В 0.6
{0.9}
+8.5 +8.5 100 +8 +8 1023.1 967.5 +8.6 +8.5
ЮВ 0.8
{1.1}
+8.5 +8.5 100 +8 +8 1023.2 967.6 +8.5 +8.4
ЮВ 0.8
{1.4}
+8.5 +8.5 100 +8 +8 1023.2 967.6 +8.6 +8.5
ЮВ 1.2
{1.8}
+8.8 +8.8 100 +8 +8 1023.4 967.8 +8.8 +8.5
Ю 1.0
{1.6}
+8.9 +8.9 100 +8 +8 1023.6 968.0 +8.9 +8.8
ЮВ 1.0
{1.8}
+9.1 +9.1 100 +8 +8 1023.6 968.0 +9.1 +8.9
Ю 1.3
{2.2}
+9.7 +9.7 100 +9 +9 1023.7 968.1 +9.7 +9.1
Ю 1.0
{2.0}
+10.2 +10.2 100 +10 +10 1023.7 968.1 +10.2 +9.7
ЮВ 1.0
{1.5}
+10.8 +10.8 100 +10 +10 1023.7 968.1 +10.8 +10.2
ЮВ 1.1
{1.7}
+11.4 +11.4 100 +11 +11 1023.8 968.2 +11.4 +10.8
ЮВ 1.2
{1.7}
+12.1 +12.1 100 +12 +12 1023.9 968.3 +12.1 +11.4
ЮВ 0.9
{1.5}
+12.6 +12.6 100 +13 +13 1023.9 968.3 +12.6 +12.1
Ю 0.9
{1.8}
+13.0 +13.0 100 +13 +13 1023.9 968.3 +13.0 +12.6
ЮЗ 1.8
{3.0}
+16.3 +16.3 100 +16 +16 1023.7 968.1 +16.5 +15.7
З 2.4
{3.7}
+16.8 +16.8 100 +17 +17 1023.7 968.1 +16.8 +16.5
С 1.7
{3.5}
+19.5 +15.1 76 +22 +22 комфорт 1023.1 967.5 +19.5 +19.1
З 1.6
{2.4}
+23.6 +10.3 43 +25 +25 комфорт 1018.4 963.0 +23.6 +23.4
СЗ 1.3
{3.7}
+23.1 +7.0 35 +24 +24 комфорт 1018.2 962.8 +23.4 +23.1
СЗ 1.2
{2.6}
+23.1 +9.0 41 +25 +25 комфорт 1018.1 962.7 +23.3 +23.1
С 1.8
{3.2}
+22.8 +8.5 40 +24 +24 комфорт 1018.0 962.6 +23.1 +22.8
СЗ 2.1
{3.5}
+22.7 +8.9 42 +24 +24 комфорт 1017.9 962.5 +22.8 +22.6
СЗ 2.0
{3.1}
+22.6 +7.7 38 +24 +24 комфорт 1017.9 962.5 +22.8 +22.6
СЗ 1.7
{2.9}
+22.5 +8.3 40 +24 +24 комфорт 1017.9 962.5 +22.6 +22.5
СЗ 2.1
{2.8}
+22.3 +7.5 39 +23 +23 комфорт 1017.8 962.4 +22.5 +22.3
СЗ 1.9
{2.8}
+22.3 +6.9 37 +23 +23 комфорт 1017.8 962.4 +22.3 +22.2
С 1.3
{2.1}
+22.0 +9.3 44 +23 +23 комфорт 1017.7 962.3 +22.3 +22.0
СЗ 1.3
{1.8}
+21.8 +7.7 40 +23 +23 комфорт 1017.7 962.3 +22.0 +21.8
СЗ 0.9
{1.5}
+21.5 +9.6 47 +23 +23 комфорт 1017.7 962.3 +21.8 +21.5
С 0.7
{1.1}
+20.9 +9.2 47 +24 +24 комфорт 1017.6 962.2 +21.5 +20.9
СЗ 0.6
{1.0}
+20.2 +9.3 50 +23 +23 комфорт 1017.6 962.2 +20.9 +20.2
С 0.3
{0.5}
+19.5 +9.2 51 +22 +22 комфорт 1017.6 962.2 +20.2 +19.5
С 0.6
{0.7}
+18.7 +12.2 66 +21 +21 комфорт 1017.6 962.2 +19.5 +18.7
С 0.4
{0.6}
+18.0 +10.2 60 +20 +20 1017.6 962.2 +18.7 +18.0
С 0.5
{0.7}
+17.4 +10.8 65 +19 +19 1017.7 962.3 +18.0 +17.4
СВ 0.6
{0.7}
+17.2 +11.0 67 +19 +19 1017.7 962.3 +17.4 +17.2
СВ 0.2
{0.6}
+17.0 +11.6 70 +19 +19 1017.7 962.3 +17.2 +17.0
В 0.3
{0.4}
+16.1 +13.0 82 +18 +18 1017.7 962.3 +16.4 +16.1
В 0.5
{0.6}
+16.1 +13.4 84 +17 +17 1017.8 962.4 +16.2 +16.1
В 0.8
{1.3}
+16.0 +13.7 87 +17 +17 1017.8 962.4 +16.1 +16.0
В 0.9
{1.4}
+15.6 +13.7 88 +16 +16 1017.7 962.3 +16.0 +15.6
ЮВ 0.6
{1.5}
+15.4 +13.1 87 +16 +16 1017.7 962.3 +15.6 +15.4
ЮВ 0.7
{1.2}
+15.2 +14.5 95 +16 +16 1017.7 962.3 +15.4 +15.2
ЮВ 0.8
{1.2}
+14.9 +14.9 100 +16 +16 1017.7 962.3 +15.3 +14.9
ЮВ 0.4
{0.8}
+14.2 +14.2 100 +15 +15 1017.7 962.3 +14.5 +14.2
ЮВ 0.6
{1.1}
+14.0 +14.0 100 +15 +15 1017.7 962.3 +14.2 +14.0
ЮВ 0.6
{0.9}
+13.9 +13.9 100 +15 +15 1017.6 962.2 +14.0 +13.9
ЮВ 0.9
{1.4}
+13.9 +13.9 100 +14 +14 1017.6 962.2 +13.9 +13.7
ЮВ 0.7
{1.1}
+13.7 +13.7 100 +14 +14 1017.5 962.1 +13.9 +13.7
ЮВ 1.3
{2.4}
+13.8 +13.8 100 +14 +14 1017.5 962.1 +13.8 +13.7
ЮВ 1.8
{2.5}
+14.4 +14.4 100 +14 +14 1017.4 962.0 +14.4 +13.8
ЮВ 1.7
{2.6}
+14.4 +14.4 100 +14 +14 1017.4 962.0 +14.5 +14.4
ЮВ 2.4
{3.4}
+14.9 +14.8 100 +14 +14 1017.2 961.9 +14.9 +14.4
ЮВ 1.7
{3.2}
+14.3 +14.3 100 +14 +14 1017.2 961.9 +15.0 +14.3
В 1.2
{2.2}
+13.8 +13.8 100 +14 +14 1017.1 961.8 +14.3 +13.8
ЮВ 2.1
{2.6}
+14.2 +14.2 100 +14 +14 1017.0 961.7 +14.2 +13.8
ЮВ 1.8
{2.8}
+14.1 +14.1 100 +14 +14 1017.0 961.7 +14.2 +14.1
ЮВ 1.8
{2.9}
+14.2 +14.2 100 +14 +14 1017.0 961.7 +14.2 +14.1
ЮВ 1.3
{1.9}
+13.9 +13.9 100 +14 +14 1016.9 961.6 +14.2 +13.9
ЮВ 1.0
{1.8}
+12.5 +12.5 100 +12 +12 1016.7 961.4 +12.6 +12.2
ЮВ 1.6
{2.3}
+12.8 +12.8 100 +12 +12 1016.6 961.3 +12.9 +12.5
С 0.6
{1.2}
+11.6 +11.6 100 +12 +12 1016.4 961.1 +12.3 +11.6
СВ 1.2
{2.0}
+11.2 +11.2 100 +11 +11 1016.3 961.0 +11.6 +11.2
В 0.9
{1.5}
+11.0 +11.0 100 +11 +11 1016.2 960.9 +11.2 +11.0
В 0.9
{1.3}
+10.9 +10.9 100 +11 +11 1016.2 960.9 +11.0 +10.8
С 0.7
{1.0}
+10.1 +10.1 100 +10 +10 1016.0 960.7 +11.0 +10.1
С 0.2
{0.6}
+9.9 +9.9 100 +11 +11 1016.0 960.7 +10.1 +9.7
С 0.2
{0.4}
+10.2 +10.2 100 +12 +12 1015.9 960.6 +10.1 +9.9
В 0.9
{1.3}
+10.4 +10.4 100 +10 +10 1015.8 960.5 +10.4 +10.3
ЮВ 1.1
{1.7}
+10.6 +10.6 100 +10 +10 1015.7 960.4 +10.6 +10.3
ЮВ 1.0
{1.7}
+10.6 +10.6 100 +10 +10 1015.6 960.3 +10.7 +10.6
ЮВ 1.2
{2.1}
+10.6 +10.6 100 +10 +10 1015.5 960.2 +10.6 +10.4
ЮВ 2.0
{2.4}
+11.2 +11.2 100 +10 +10 1015.4 960.1 +11.2 +10.6
ЮВ 1.9
{2.9}
+11.5 +11.5 100 +10 +10 1015.3 960.0 +11.5 +11.2
ЮВ 2.1
{2.9}
+11.7 +11.7 100 +10 +10 1015.2 959.9 +11.8 +11.5
ЮВ 1.4
{2.2}
+11.5 +11.5 100 +11 +11 1015.2 959.9 +11.7 +11.5
В 1.4
{2.8}
+11.4 +11.4 100 +11 +11 1015.3 960.0 +11.6 +11.4
ЮВ 2.0
{2.8}
+11.8 +11.8 100 +11 +11 1015.3 960.0 +11.8 +11.4
ЮВ 1.7
{2.5}
+11.8 +11.8 100 +11 +11 1015.2 959.9 +11.9 +11.8
ЮВ 1.6
{2.3}
+11.7 +11.7 100 +11 +11 1015.2 959.9 +11.8 +11.7
ЮВ 1.4
{2.2}
+11.6 +11.6 100 +11 +11 1015.1 959.8 +11.7 +11.6
В 1.0
{1.7}
+11.0 +11.0 100 +11 +11 1015.1 959.8 +11.6 +11.0
СВ 0.5
{1.2}
+9.5 +9.5 100 +10 +10 1015.1 959.8 +11.0 +9.9
С 0.5
{1.4}
+9.5 +9.5 100 +10 +10 1015.2 959.9 +9.9 +9.3
СВ 1.5
{2.5}
+9.5 +9.5 100 +8 +8 1015.3 960.0 +9.8 +9.5
СВ 1.1
{2.0}
+10.3 +10.3 100 +10 +10 1015.4 960.1 +10.3 +9.7
В 1.0
{1.4}
+11.2 +11.2 100 +11 +11 1015.6 960.3 +11.2 +10.7
В 1.2
{1.7}
+12.5 +12.5 100 +12 +12 1015.5 960.2 +12.5 +11.9
В 1.1
{1.8}
+13.3 +13.3 100 +13 +13 1015.5 960.2 +13.2 +12.5
В 1.0
{1.6}
+13.8 +13.8 100 +14 +14 1015.5 960.2 +13.8 +13.3
В 1.0
{1.5}
+14.4 +14.4 100 +15 +15 1015.4 960.1 +14.4 +13.8
СВ 1.0
{1.6}
+14.9 +14.9 100 +15 +15 1015.3 960.0 +15.0 +14.4
СВ 1.0
{1.8}
+15.4 +15.4 100 +16 +16 1015.3 960.0 +15.4 +14.9
СВ 0.5
{1.1}
+17.0 +17.0 100 +18 +18 1015.2 959.9 +16.9 +15.8
ЮВ 0.6
{1.4}
+17.3 +17.3 100 +19 +19 1015.2 959.9 +17.3 +16.9
ЮВ 0.6
{1.1}
+17.7 +17.7 100 +19 +19 1015.1 959.8 +17.7 +17.3
СВ 1.7
{3.0}
+23.3 +12.6 51 +26 +26 жарко 1013.7 958.5 +23.4 +22.7
С 1.4
{3.3}
+23.7 +11.7 47 +25 +25 комфорт 1013.2 958.0 +23.7 +23.0
З 1.6
{3.9}
+26.8 +12.6 41 +28 +28 жарко 1009.1 954.1 +27.0 +26.6
ЮЗ 1.3
{4.0}
+27.3 +13.1 42 +29 +29 жарко 1009.0 954.0 +27.5 +26.8
СЗ 1.3
{2.4}
+26.5 +12.4 42 +28 +28 жарко 1008.9 953.9 +26.8 +26.3
ЮЗ 1.1
{3.0}
+27.0 +11.7 38 +28 +28 жарко 1008.9 953.9 +27.2 +26.5
З 2.4
{4.5}
+27.0 +12.8 41 +29 +29 жарко 1008.8 953.8 +27.0 +26.7
З 1.2
{2.8}
+27.4 +12.0 38 +29 +29 жарко 1008.7 953.7 +27.5 +27.1
СЗ 1.6
{3.6}
+27.0 +11.0 37 +28 +28 жарко 1008.6 953.6 +27.4 +27.0
ЮЗ 0.9
{2.7}
+27.9 +12.8 39 +29 +29 жарко 1008.3 953.4 +27.8 +27.2
ЮЗ 0.8
{2.7}
+28.4 +11.2 34 +29 +29 жарко 1008.2 953.3 +28.4 +27.9
С 0.9
{1.9}
+28.2 +12.8 39 +30 +30 жарко 1008.2 953.3 +28.5 +28.0
ЮЗ 1.1
{2.5}
+28.8 +13.0 38 +30 +30 жарко 1008.0 953.1 +28.7 +28.1
З 1.0
{1.7}
+28.9 +9.7 30 +29 +29 жарко 1008.0 953.1 +29.0 +28.6
ЮВ 0.7
{1.9}
+29.1 +10.8 32 +29 +29 жарко 1007.9 953.0 +29.2 +28.7
З 1.3
{3.2}
+28.8 +10.4 32 +29 +29 жарко 1007.8 952.9 +29.1 +28.6
ЮЗ 1.5
{3.8}
+28.5 +11.5 35 +29 +29 жарко 1007.8 952.9 +29.0 +28.5
З 2.7
{4.2}
+27.8 +11.6 36 +29 +29 жарко 1007.8 952.9 +28.5 +27.8
ЮЗ 2.5
{4.2}
+27.8 +12.4 39 +29 +29 жарко 1007.8 952.9 +28.0 +27.7
ЮЗ 1.5
{3.8}
+28.3 +13.4 40 +30 +30 жарко 1007.8 952.9 +28.4 +27.8
З 2.8
{4.9}
+27.6 +15.0 46 +30 +30 жарко 1007.9 953.0 +28.3 +27.6
З 2.7
{4.7}
+27.6 +13.0 40 +29 +29 жарко 1007.8 952.9 +27.8 +27.6
З 2.5
{3.6}
+27.6 +9.7 33 +28 +28 жарко 1007.8 952.9 +27.8 +27.6
З 2.3
{3.6}
+27.5 +13.0 41 +29 +29 жарко 1007.8 952.9 +27.7 +27.5
З 2.4
{4.3}
+27.4 +14.4 45 +30 +30 жарко 1007.8 952.9 +27.6 +27.4
ЮЗ 2.1
{3.2}
+27.3 +9.9 34 +28 +28 жарко 1007.8 952.9 +27.4 +27.2
ЮЗ 2.0
{3.2}
+27.2 +14.2 45 +29 +29 жарко 1007.9 953.0 +27.4 +27.2
З 2.1
{4.0}
+27.1 +13.4 43 +29 +29 жарко 1007.9 953.0 +27.2 +26.9
З 2.1
{3.3}
+27.0 +11.9 39 +28 +28 жарко 1008.0 953.1 +27.2 +27.0
З 2.1
{3.3}
+26.4 +13.0 43 +28 +28 жарко 1008.0 953.1 +27.0 +26.4
З 1.5
{2.2}
+26.4 +13.5 45 +28 +28 жарко 1008.0 953.1 +26.5 +26.4
З 1.6
{2.1}
+26.0 +14.5 49 +28 +28 жарко 1008.1 953.2 +26.5 +26.0
З 1.5
{2.3}
+25.8 +12.2 43 +27 +27 жарко 1008.1 953.2 +26.0 +25.7
З 1.9
{3.3}
+25.1 +13.9 50 +27 +27 жарко 1008.1 953.2 +25.8 +25.1
Местоположение метеостанции Кува (Ферганская область, Узбекистан): широта 40.57 долгота 72.07 высота над уровнем моря 0 м.
В архиве по умолчанию представлена погода в Куве за последние 1-2 суток. Обновление информации о фактической погоде в базе происходит ежечасно! Архивные данные за месяц целиком и за предыдущие месяцы Вы можете получить, выбрав интересующий диапазон дат из раскрывающегося списка и нажав кнопку "Ввод!".
*Определитесь, кто Вы:
Внимание! Время в таблицах - местное (без учета летнего времени). Для получения всемирного времени необходимо вычесть поправку, которая равна 5 ч.
Смотрите также архив погоды на ближайших метеорологических станциях:
Партнеры нашего сайта:      
Пояснения к столбцам:
  • Ветер - указаны скорость ветра в м/с - средняя за 10 мин, порывы в срок и между сроками (в фигурных скобках) и направление, откуда дует ветер: С - северный,
  • СВ - северо-восточный, В - восточный, ЮВ - юго-восточный, Ю - южный, ЮЗ - юго-западный, З - западный, СЗ - северо-западный.
  • Видимость - горизонтальная дальность видимости в метрах или километрах. При видимости от 1 до 10 км при отсутствии осадков обычно наблюдается дымка, при ухудшении видимости до 1 км и менее - туман. В сухую погоду видимость может ухудшаться дымом, пылью или мглою.
  • Явления - указаны атмосферные явления, наблюдавшиеся в срок или в последний час перед сроком.
  • Солнечная радиация - мощность потока солнечного излучения на поверхность земли и предметов в Вт/м2.
  • T - Температура воздуха - температура, измеренная на высоте 2 м над землей.
  • Td - Температура точки росы - температура, при понижении до которой содержащийся в воздухе водяной пар достигнет насыщения.
  • f - Относительная влажность воздуха - влажноcть воздуха, измеренная на высоте 2 м над землей.
  • Te - Эффективная температура - температура, которую ощущает одетый по сезону человек в тени. Характеристика душности погоды. При расчете учитывается влияние влажности воздуха и скорости ветра на теплоощущения человека.
  • Tes - Эффективная температура на солнце - температура, которую ощущает человек, с поправкой на солнечный нагрев. Характеристика знойности погоды. Зависит от высоты солнца над горизонтом, облачности и скорости ветра. Ночью, в пасмурную погоду, а также при ветре 12 м/с и более поправка равна нулю.
  • P - Атмосферное давление - приведенное к уровню моря атмосферное давление.
  • Po - Атмосферное давление - измеренное на уровне метеостанции атмосферное давление.
  • Tmin - Минимальная температура - минимум температуры воздуха на высоте 2 м над землей.
  • Tmax - Максимальная температура - максимум температуры воздуха на высоте 2 м над землей.
  • R - Количество осадков - Количество выпавших осадков за период времени, мм. При наведении курсора мыши на число - период времени, за который выпало указанное количество осадков.